N7ZAP Weather Reports


Display with metric or nautical units.
time (UTC)temp
F
wind
direction
speed
MPH
gust
MPH
rain 1hr
in
rain 24hr
in
rain mn
in
humidity
%
barometer
mb
20260510225223 85 35 5.0 8.0 0.00 0.00 0.00 18 1018.0
20260510224719 86 76 4.0 6.0 0.00 0.00 0.00 17 1018.2
20260510224216 86 133 4.0 6.0 0.00 0.00 0.00 16 1018.1
20260510223714 86 124 1.0 6.0 0.00 0.00 0.00 16 1018.3
20260510223210 87 196 2.0 6.0 0.00 0.00 0.00 15 1017.8
20260510222707 86 112 3.0 10.0 0.00 0.00 0.00 15 1018.1
20260510222205 86 94 2.0 7.0 0.00 0.00 0.00 16 1018.2
20260510221700 87 116 3.0 7.0 0.00 0.00 0.00 16 1018.0
20260510221157 86 123 6.0 10.0 0.00 0.00 0.00 16 1018.2
20260510220654 87 186 4.0 8.0 0.00 0.00 0.00 16 1018.1
20260510220154 86 98 4.0 7.0 0.00 0.00 0.00 17 1018.2
20260510215651 87 356 4.0 6.0 0.00 0.00 0.00 17 1018.2
20260510215150 90 93 2.0 4.0 0.00 0.00 0.00 16 1018.1
20260510214646 89 205 2.0 2.0 0.00 0.00 0.00 10 1018.2
20260510214143 89 104 0.0 2.0 0.00 0.00 0.00 10 1018.1
20260510213640 89 90 2.0 3.0 0.00 0.00 0.00 8 1018.3
20260510213136 90 26 4.0 7.0 0.00 0.00 0.00 8 1018.2
20260510212633 90 103 1.0 4.0 0.00 0.00 0.00 8 1018.3
20260510212130 90 100 0.0 2.0 0.00 0.00 0.00 8 1018.2
20260510211626 89 110 2.0 3.0 0.00 0.00 0.00 8 1018.4
20260510211121 91 57 3.0 7.0 0.00 0.00 0.00 8 1018.4
20260510210618 90 348 2.0 3.0 0.00 0.00 0.00 8 1018.5
20260510210113 90 78 2.0 3.0 0.00 0.00 0.00 8 1018.4
20260510205612 89 69 2.0 2.0 0.00 0.00 0.00 8 1018.4
20260510205108 89 7 1.0 4.0 0.00 0.00 0.00 9 1018.7
20260510204604 89 95 3.0 7.0 0.00 0.00 0.00 8 1018.8
20260510204102 90 78 1.0 6.0 0.00 0.00 0.00 9 1018.8
20260510203558 90 344 3.0 6.0 0.00 0.00 0.00 9 1018.8
20260510203055 91 79 2.0 9.0 0.00 0.00 0.00 8 1018.9
20260510202554 90 258 2.0 2.0 0.00 0.00 0.00 9 1018.5
20260510202050 88 264 0.0 6.0 0.00 0.00 0.00 10 1018.8
20260510201548 87 250 3.0 3.0 0.00 0.00 0.00 7 1018.9
20260510201045 0 0.0 0.0 0.00 0.00 0.00 1018.8
20260510200540 87 286 4.0 4.0 0.00 0.00 0.00 8 1019.1
20260510200038 87 286 4.0 4.0 0.00 0.00 0.00 8 1019.0
20260510195536 89 259 2.0 2.0 0.00 0.00 0.00 8 1019.0
20260510195032 89 259 2.0 2.0 0.00 0.00 0.00 8 1018.9
20260510194527 0 0.0 0.0 0.00 0.00 0.00 1019.0
20260510194024 0 0.0 0.0 0.00 0.00 0.00 1019.0
20260510193518 0 0.0 0.0 0.00 0.00 0.00 1019.5
20260510193015 0 0.0 0.0 0.00 0.00 0.00 1019.2
20260510192509 0 0.0 0.0 0.00 0.00 0.00 1019.1
20260510192005 0 0.0 0.0 0.00 0.00 0.00 1019.4
20260510191502 0 0.0 0.0 0.00 0.00 0.00 1019.1
20260510190959 0 0.0 0.0 0.00 0.00 0.00 1019.2
20260510190456 0 0.0 0.0 0.00 0.00 0.00 1019.2
20260510185953 86 173 0.0 1.0 0.00 0.00 0.00 9 1019.2
20260510185450 86 173 0.0 1.0 0.00 0.00 0.00 9 1019.5
20260510184947 86 245 2.0 3.0 0.00 0.00 0.00 9 1019.5
20260510184444 0 0.0 0.0 0.00 0.00 0.00 1019.5
20260510183944 0 0.0 0.0 0.00 0.00 0.00 1019.2
20260510183441 0 0.0 0.0 0.00 0.00 0.00 1019.4
20260510182941 0 0.0 0.0 0.00 0.00 0.00 1019.4
20260510182438 0 0.0 0.0 0.00 0.00 0.00 1019.7
20260510181933 0 0.0 0.0 0.00 0.00 0.00 1019.6
20260510181432 0 0.0 0.0 0.00 0.00 0.00 1019.5
20260510180927 0 0.0 0.0 0.00 0.00 0.00 1019.9
20260510180425 87 293 0.0 0.0 0.00 0.00 0.00 11 1019.8
20260510175921 87 293 0.0 0.0 0.00 0.00 0.00 11 1019.6
20260510175417 87 32 1.0 1.0 0.00 0.00 0.00 12 1019.8
20260510174913 87 162 1.0 4.0 0.00 0.00 0.00 11 1019.7
20260510174412 86 350 1.0 1.0 0.00 0.00 0.00 12 1019.6
20260510173908 84 257 0.0 2.0 0.00 0.00 0.00 14 1019.9
20260510173403 85 209 2.0 4.0 0.00 0.00 0.00 12 1019.8
20260510172900 84 180 1.0 2.0 0.00 0.00 0.00 12 1019.9
20260510172356 85 206 1.0 2.0 0.00 0.00 0.00 12 1019.7
20260510171852 85 278 2.0 4.0 0.00 0.00 0.00 14 1020.1
20260510171350 84 104 0.0 1.0 0.00 0.00 0.00 14 1019.7
20260510170847 84 29 1.0 2.0 0.00 0.00 0.00 15 1019.7
20260510170343 84 347 2.0 2.0 0.00 0.00 0.00 14 1019.6
20260510165838 85 275 1.0 2.0 0.00 0.00 0.00 13 1019.7
20260510165335 86 269 1.0 2.0 0.00 0.00 0.00 15 1020.1
20260510164832 85 267 3.0 3.0 0.00 0.00 0.00 13 1019.7
20260510164329 84 264 1.0 2.0 0.00 0.00 0.00 16 1019.8
20260510163829 84 100 1.0 3.0 0.00 0.00 0.00 15 1019.8
20260510163326 83 90 1.0 1.0 0.00 0.00 0.00 15 1019.8
20260510162826 82 266 0.0 4.0 0.00 0.00 0.00 15 1019.9
20260510162324 83 289 2.0 3.0 0.00 0.00 0.00 18 1019.5
20260510161819 82 134 1.0 1.0 0.00 0.00 0.00 17 1019.7
20260510161315 82 272 1.0 1.0 0.00 0.00 0.00 18 1019.5
20260510160812 81 180 0.0 2.0 0.00 0.00 0.00 18 1019.7
20260510160309 81 209 1.0 6.0 0.00 0.00 0.00 19 1019.6
20260510155808 80 176 1.0 1.0 0.00 0.00 0.00 19 1019.7
20260510155306 80 205 2.0 2.0 0.00 0.00 0.00 18 1019.7
20260510154801 80 203 3.0 3.0 0.00 0.00 0.00 16 1019.6
20260510154257 80 240 0.0 4.0 0.00 0.00 0.00 17 1019.6
20260510153752 79 51 0.0 2.0 0.00 0.00 0.00 17 1019.5
20260510153248 79 276 2.0 3.0 0.00 0.00 0.00 19 1019.6
20260510152745 78 263 2.0 3.0 0.00 0.00 0.00 17 1019.5
20260510152242 79 257 3.0 8.0 0.00 0.00 0.00 17 1019.5
20260510151738 78 262 0.0 4.0 0.00 0.00 0.00 21 1019.7
20260510151237 78 272 2.0 2.0 0.00 0.00 0.00 18 1019.6
20260510150732 78 259 2.0 6.0 0.00 0.00 0.00 19 1019.4
20260510150228 79 265 0.0 1.0 0.00 0.00 0.00 20 1019.2
20260510145724 78 265 0.0 0.0 0.00 0.00 0.00 18 1019.1
20260510145220 78 348 1.0 1.0 0.00 0.00 0.00 21 1019.1
20260510144717 77 348 0.0 1.0 0.00 0.00 0.00 19 1019.0
20260510144214 77 348 1.0 1.0 0.00 0.00 0.00 19 1019.2
20260510143708 76 348 1.0 1.0 0.00 0.00 0.00 19 1019.1
20260510143205 76 348 3.0 3.0 0.00 0.00 0.00 19 1019.2
20260510142701 73 321 0.0 0.0 0.00 0.00 0.00 21 1019.1
20260510142158 72 321 0.0 0.0 0.00 0.00 0.00 25 1019.2
20260510141655 70 321 0.0 0.0 0.00 0.00 0.00 28 1019.0
20260510141154 70 321 0.0 1.0 0.00 0.00 0.00 31 1019.0
20260510140650 69 321 1.0 1.0 0.00 0.00 0.00 24 1019.2
20260510140149 68 239 0.0 0.0 0.00 0.00 0.00 33 1018.9
20260510135644 67 239 0.0 0.0 0.00 0.00 0.00 28 1018.9
20260510135141 66 239 0.0 0.0 0.00 0.00 0.00 31 1019.0
20260510134638 65 239 0.0 0.0 0.00 0.00 0.00 35 1019.0
20260510134135 64 239 0.0 0.0 0.00 0.00 0.00 33 1018.9
20260510133631 64 239 0.0 0.0 0.00 0.00 0.00 33 1019.0
20260510133126 63 239 0.0 0.0 0.00 0.00 0.00 32 1018.9
20260510132624 63 239 0.0 0.0 0.00 0.00 0.00 32 1019.1
20260510132121 63 239 0.0 0.0 0.00 0.00 0.00 30 1018.7
20260510131618 63 239 0.0 0.0 0.00 0.00 0.00 31 1018.4
20260510131115 63 239 0.0 0.0 0.00 0.00 0.00 29 1018.4
20260510130611 64 239 0.0 0.0 0.00 0.00 0.00 29 1018.4
20260510130109 64 239 0.0 0.0 0.00 0.00 0.00 27 1018.3
20260510125605 64 239 0.0 0.0 0.00 0.00 0.00 27 1018.2
20260510125102 64 239 0.0 1.0 0.00 0.00 0.00 27 1018.0
20260510124558 64 239 0.0 0.0 0.00 0.00 0.00 27 1018.2
20260510124055 64 239 0.0 0.0 0.00 0.00 0.00 26 1018.0
20260510123550 64 239 0.0 0.0 0.00 0.00 0.00 26 1017.7
20260510123047 64 208 1.0 1.0 0.00 0.00 0.00 26 1018.0
20260510122543 64 208 0.0 0.0 0.00 0.00 0.00 27 1017.8
20260510122039 64 208 0.0 1.0 0.00 0.00 0.00 27 1017.8
20260510121536 64 208 0.0 0.0 0.00 0.00 0.00 28 1017.7
20260510121033 65 208 0.0 0.0 0.00 0.00 0.00 29 1017.5
20260510120531 65 208 0.0 0.0 0.00 0.00 0.00 29 1017.3
20260510120026 65 208 0.0 0.0 0.00 0.00 0.00 27 1017.4
20260510115523 66 208 0.0 0.0 0.00 0.00 0.00 27 1017.3
20260510115020 67 208 0.0 0.0 0.00 0.00 0.00 25 1017.2
20260510114516 67 208 0.0 0.0 0.00 0.00 0.00 25 1017.3
20260510114013 67 207 0.0 1.0 0.00 0.00 0.00 24 1017.2
20260510113508 67 208 0.0 0.0 0.00 0.00 0.00 24 1017.3
20260510113006 67 208 0.0 0.0 0.00 0.00 0.00 23 1017.3
20260510112502 67 209 0.0 0.0 0.00 0.00 0.00 23 1017.4
20260510111958 68 209 0.0 0.0 0.00 0.00 0.00 22 1017.4
20260510111455 68 209 1.0 1.0 0.00 0.00 0.00 21 1017.4
20260510110951 68 208 0.0 1.0 0.00 0.00 0.00 21 1017.2
20260510110447 69 219 0.0 0.0 0.00 0.00 0.00 21 1017.5
20260510105943 69 219 0.0 1.0 0.00 0.00 0.00 20 1017.7
20260510105439 69 251 0.0 0.0 0.00 0.00 0.00 21 1017.5
20260510104934 70 251 0.0 0.0 0.00 0.00 0.00 20 1017.8
20260510104431 71 250 0.0 0.0 0.00 0.00 0.00 20 1017.7
20260510103927 71 263 0.0 1.0 0.00 0.00 0.00 19 1017.6
20260510103425 69 288 4.0 7.0 0.00 0.00 0.00 20 1017.5
20260510102920 69 318 2.0 4.0 0.00 0.00 0.00 20 1017.8
20260510102416 68 270 3.0 3.0 0.00 0.00 0.00 20 1017.5
20260510101913 69 264 0.0 2.0 0.00 0.00 0.00 21 1017.5
20260510101411 69 261 0.0 3.0 0.00 0.00 0.00 20 1017.7
20260510100908 69 262 1.0 3.0 0.00 0.00 0.00 20 1017.7
20260510100405 69 260 0.0 1.0 0.00 0.00 0.00 20 1017.5
20260510095902 70 260 0.0 1.0 0.00 0.00 0.00 20 1017.3
20260510095356 70 260 0.0 1.0 0.00 0.00 0.00 20 1017.5
20260510094856 70 128 0.0 1.0 0.00 0.00 0.00 19 1017.2
20260510094351 71 237 1.0 2.0 0.00 0.00 0.00 19 1017.2
20260510093848 71 308 1.0 1.0 0.00 0.00 0.00 19 1016.9
20260510093344 71 352 1.0 1.0 0.00 0.00 0.00 18 1017.0
20260510092840 71 92 0.0 2.0 0.00 0.00 0.00 19 1016.9
20260510092336 71 55 1.0 3.0 0.00 0.00 0.00 19 1016.8
20260510091832 70 93 0.0 7.0 0.00 0.00 0.00 19 1016.9
20260510091330 70 344 1.0 3.0 0.00 0.00 0.00 19 1016.7
20260510090826 70 41 1.0 1.0 0.00 0.00 0.00 19 1016.9
20260510090323 69 276 1.0 2.0 0.00 0.00 0.00 19 1016.6
20260510085819 69 110 1.0 3.0 0.00 0.00 0.00 19 1016.6
20260510085318 69 131 0.0 1.0 0.00 0.00 0.00 19 1016.6
20260510084814 69 273 1.0 6.0 0.00 0.00 0.00 20 1016.2
20260510084311 69 265 2.0 3.0 0.00 0.00 0.00 19 1016.2
20260510083808 69 261 1.0 4.0 0.00 0.00 0.00 19 1016.3
20260510083305 68 275 3.0 6.0 0.00 0.00 0.00 19 1016.3
20260510082800 68 249 1.0 6.0 0.00 0.00 0.00 20 1016.3
20260510082258 68 276 2.0 3.0 0.00 0.00 0.00 19 1016.3
20260510081756 68 255 1.0 4.0 0.00 0.00 0.00 19 1016.1
20260510081252 68 250 1.0 2.0 0.00 0.00 0.00 19 1016.1
20260510080748 68 282 1.0 6.0 0.00 0.00 0.00 19 1016.2
20260510080244 68 263 1.0 4.0 0.00 0.00 0.00 19 1016.0
20260510075741 68 276 2.0 6.0 0.00 0.00 0.00 19 1016.0
20260510075238 69 304 0.0 4.0 0.00 0.00 0.00 19 1016.1
20260510074735 68 282 2.0 8.0 0.00 0.00 0.00 19 1016.0
20260510074232 68 259 3.0 3.0 0.00 0.00 0.00 19 1015.8
20260510073728 68 268 2.0 6.0 0.00 0.00 0.00 19 1015.9
20260510073224 69 239 2.0 4.0 0.00 0.00 0.00 19 1015.8
20260510072720 69 262 2.0 3.0 0.00 0.00 0.00 18 1015.9
20260510072217 69 269 2.0 7.0 0.00 0.00 0.00 19 1015.5
20260510071713 69 276 1.0 4.0 0.00 0.00 0.00 19 1015.4
20260510071210 69 263 1.0 2.0 0.00 0.00 0.00 19 1015.6
20260510070708 69 264 1.0 2.0 0.00 0.00 0.00 19 1015.8
20260510070205 69 252 0.0 2.0 0.00 0.00 0.00 19 1015.8
20260510065700 69 291 2.0 4.0 0.00 0.00 0.00 18 1015.4
20260510065156 70 259 0.0 1.0 0.00 0.00 0.00 18 1015.3
20260510064653 70 246 0.0 1.0 0.00 0.00 0.00 18 1015.3
20260510064150 69 271 0.0 1.0 0.00 0.00 0.00 18 1015.1
20260510063648 69 258 0.0 1.0 0.00 0.00 0.00 18 1015.2
20260510063144 70 267 0.0 1.0 0.00 0.00 0.00 18 1014.9
20260510062640 70 264 0.0 4.0 0.00 0.00 0.00 18 1015.1
20260510062136 69 268 0.0 1.0 0.00 0.00 0.00 18 1014.7
20260510061631 69 276 0.0 2.0 0.00 0.00 0.00 18 1014.7
20260510061129 69 273 1.0 1.0 0.00 0.00 0.00 17 1014.6
20260510060625 69 324 0.0 1.0 0.00 0.00 0.00 17 1014.4
20260510060122 69 333 1.0 2.0 0.00 0.00 0.00 16 1014.6
20260510055618 68 347 1.0 2.0 0.00 0.00 0.00 17 1014.5
20260510055116 68 297 0.0 2.0 0.00 0.00 0.00 17 1014.5
20260510054611 68 326 0.0 0.0 0.00 0.00 0.00 16 1014.4
20260510054107 68 325 0.0 1.0 0.00 0.00 0.00 16 1014.2
20260510053606 68 332 0.0 1.0 0.00 0.00 0.00 17 1014.4
20260510053104 68 306 0.0 0.0 0.00 0.00 0.00 17 1014.4
20260510052559 68 306 0.0 0.0 0.00 0.00 0.00 16 1014.4
20260510052056 68 307 0.0 1.0 0.00 0.00 0.00 16 1014.0
20260510051551 68 307 0.0 0.0 0.00 0.00 0.00 16 1014.2
20260510051049 68 306 0.0 1.0 0.00 0.00 0.00 15 1014.1
20260510050546 68 307 0.0 0.0 0.00 0.00 0.00 16 1014.0
20260510050043 69 307 0.0 0.0 0.00 0.00 0.00 16 1013.7
20260510045540 69 307 0.0 0.0 0.00 0.00 0.00 16 1014.1
20260510045036 69 307 0.0 0.0 0.00 0.00 0.00 15 1014.0
20260510044532 69 307 0.0 0.0 0.00 0.00 0.00 16 1014.0
20260510044030 70 307 0.0 0.0 0.00 0.00 0.00 15 1014.1
20260510043526 70 271 0.0 0.0 0.00 0.00 0.00 14 1014.0
20260510043021 71 271 0.0 0.0 0.00 0.00 0.00 14 1013.9
20260510042515 72 271 0.0 1.0 0.00 0.00 0.00 14 1013.7
20260510042010 72 278 0.0 1.0 0.00 0.00 0.00 13 1013.8
20260510041508 73 278 0.0 0.0 0.00 0.00 0.00 14 1013.6
20260510041006 73 278 0.0 1.0 0.00 0.00 0.00 13 1013.6
20260510040502 73 262 0.0 1.0 0.00 0.00 0.00 13 1013.4
20260510035957 73 278 0.0 1.0 0.00 0.00 0.00 13 1013.4
20260510035455 73 266 0.0 1.0 0.00 0.00 0.00 13 1013.0
20260510034953 74 267 0.0 1.0 0.00 0.00 0.00 13 1013.1
20260510034453 74 264 0.0 1.0 0.00 0.00 0.00 13 1013.2
20260510033948 74 263 0.0 1.0 0.00 0.00 0.00 13 1013.0
20260510033444 74 263 0.0 1.0 0.00 0.00 0.00 13 1013.0
20260510032942 74 272 0.0 0.0 0.00 0.00 0.00 13 1012.9
20260510032439 75 272 0.0 0.0 0.00 0.00 0.00 13 1012.9
20260510031939 76 272 0.0 0.0 0.00 0.00 0.00 13 1012.7
20260510031435 76 273 0.0 0.0 0.00 0.00 0.00 13 1012.6
20260510030930 76 271 0.0 1.0 0.00 0.00 0.00 12 1012.7
20260510030426 77 288 0.0 1.0 0.00 0.00 0.00 12 1012.6
20260510025924 77 249 0.0 0.0 0.00 0.00 0.00 12 1012.5
20260510025421 78 249 0.0 1.0 0.00 0.00 0.00 12 1012.5
20260510024919 78 295 0.0 0.0 0.00 0.00 0.00 12 1012.4
20260510024415 79 279 0.0 0.0 0.00 0.00 0.00 12 1012.3
20260510023911 79 258 0.0 1.0 0.00 0.00 0.00 11 1012.0
20260510023407 80 261 0.0 0.0 0.00 0.00 0.00 12 1012.2
20260510022905 80 263 0.0 1.0 0.00 0.00 0.00 11 1012.0
20260510022403 81 269 0.0 1.0 0.00 0.00 0.00 11 1011.9
20260510021902 81 7 0.0 0.0 0.00 0.00 0.00 10 1011.9
20260510021401 82 358 0.0 1.0 0.00 0.00 0.00 10 1011.8
20260510020857 82 306 0.0 1.0 0.00 0.00 0.00 10 1011.8
20260510020352 82 262 2.0 3.0 0.00 0.00 0.00 10 1011.7
20260510015848 82 316 2.0 9.0 0.00 0.00 0.00 10 1011.7
20260510015344 82 240 1.0 4.0 0.00 0.00 0.00 10 1011.5
20260510014839 82 266 2.0 2.0 0.00 0.00 0.00 10 1011.8
20260510014337 83 290 0.0 1.0 0.00 0.00 0.00 10 1011.7
20260510013833 83 299 0.0 2.0 0.00 0.00 0.00 10 1011.5
20260510013329 83 310 0.0 1.0 0.00 0.00 0.00 11 1011.7
20260510012824 83 256 0.0 0.0 0.00 0.00 0.00 11 1011.6
20260510012323 84 267 1.0 1.0 0.00 0.00 0.00 10 1011.5
20260510011819 85 246 0.0 3.0 0.00 0.00 0.00 10 1011.2
20260510011314 85 268 4.0 8.0 0.00 0.00 0.00 9 1011.5
20260510010811 85 249 3.0 6.0 0.00 0.00 0.00 10 1011.3
20260510010308 86 292 3.0 6.0 0.00 0.00 0.00 9 1011.3
20260510005805 86 308 1.0 7.0 0.00 0.00 0.00 9 1011.7
20260510005301 86 284 5.0 10.0 0.00 0.00 0.00 9 1011.6
20260510004759 86 245 1.0 7.0 0.00 0.00 0.00 9 1011.3
20260510004256 87 283 6.0 15.0 0.00 0.00 0.00 9 1011.5
20260510003754 88 253 6.0 15.0 0.00 0.00 0.00 9 1011.3
20260510003250 88 281 7.0 13.0 0.00 0.00 0.00 9 1011.7
20260510002749 89 268 7.0 10.0 0.00 0.00 0.00 9 1011.7
20260510002247 89 267 4.0 10.0 0.00 0.00 0.00 9 1011.5
20260510001743 88 291 4.0 4.0 0.00 0.00 0.00 9 1011.5
20260510001242 90 276 3.0 6.0 0.00 0.00 0.00 9 1011.2
20260510000737 89 278 8.0 11.0 0.00 0.00 0.00 9 1011.2
20260510000235 89 230 4.0 8.0 0.00 0.00 0.00 9 1011.2
20260509235731 90 342 7.0 10.0 0.00 0.00 0.00 8 1011.2
20260509235228 90 287 4.0 10.0 0.00 0.00 0.00 8 1011.5
20260509234724 89 282 5.0 7.0 0.00 0.00 0.00 9 1011.1
20260509234221 89 314 1.0 3.0 0.00 0.00 0.00 9 1011.1
20260509233719 89 38 0.0 2.0 0.00 0.00 0.00 9 1011.5
20260509233216 90 82 1.0 2.0 0.00 0.00 0.00 8 1011.1
20260509232712 90 34 0.0 1.0 0.00 0.00 0.00 9 1011.8
20260509232209 91 57 0.0 1.0 0.00 0.00 0.00 9 1011.6
20260509231706 92 12 0.0 1.0 0.00 0.00 0.00 9 1011.6
20260509231204 92 297 0.0 2.0 0.00 0.00 0.00 8 1011.2
20260509230701 91 225 1.0 3.0 0.00 0.00 0.00 8 1011.3
20260509230157 91 343 1.0 2.0 0.00 0.00 0.00 8 1011.3
20260509225653 92 246 1.0 7.0 0.00 0.00 0.00 8 1011.2